Home > Weather > Stornoway > Past weeks

Flag for United Kingdom Weather for the Past 2 Weeks in Stornoway, Scotland, United Kingdom

Now
43 °F

Passing clouds.


Feels Like: 36 °F
Forecast: 44 / 50 °F
Wind: 12 mph from Southwest

Location: Stornoway

Current Time: Apr 30, 2016 at 8:39:00 AM

Latest Report: Apr 30, 2016 at 7:50 AM


Visibility: N/A

Pressure: 29.95 "Hg

Humidity: 81%

Dew Point: 37 °F

Location of StornowayLocation

Historic Weather in Stornoway — Graph

°F

Stornoway Temperature Yesterday

Maximum temperature yesterday: 54 °F (at 12:20 PM)
Minimum temperature yesterday: 30 °F (at 5:50 AM)
Average temperature yesterday: 43 °F

High & Low Weather Summary for the Past Weeks

 TemperatureHumidityPressure
High55 °F (Apr 21, 3:50 PM)100% (Apr 20, 6:50 AM)30.45 "Hg (Apr 20, 6:50 AM)
Low25 °F (Apr 28, 6:20 AM)43% (Apr 25, 12:50 PM)29.68 "Hg (Apr 17, 11:20 PM)
Average43 °F77%30.05 "Hg
* Reported Apr 15 6:20 AM — Apr 30 6:50 AM, Stornoway, Weather by CustomWeather, © 2016

Note: Actual official high and low records may vary slightly from our data, if they occured in-between our weather recording intervals... More about our weather records

Advertising

Stornoway Weather History for the Previous 24 Hours

Scroll right to see more
 ConditionsComfort  
Time TempWeatherWind HumidityBarometerVisibility
6:50 AM
Sat, Apr 30
37 °FPassing clouds.10 mph93%29.95 "HgN/A
6:20 AM37 °FPassing clouds.7 mph87%29.95 "HgN/A
5:50 AM36 °FChilly.10 mph93%29.95 "HgN/A
5:20 AM34 °FPassing clouds.10 mph93%29.95 "HgN/A
4:50 AM32 °FPassing clouds.8 mph93%29.95 "HgN/A
4:20 AM32 °FChilly.7 mph93%29.95 "HgN/A
3:20 AM34 °FPassing clouds.9 mph93%29.95 "HgN/A
2:50 AM32 °FChilly.7 mph93%29.95 "HgN/A
2:20 AM34 °FChilly.8 mph93%29.95 "HgN/A
1:50 AM34 °FChilly.8 mph93%29.95 "HgN/A
1:20 AM34 °FChilly.6 mph93%29.95 "HgN/A
12:50 AM36 °FChilly.3 mph93%29.95 "HgN/A
12:20 AM37 °FPassing clouds.3 mph93%29.95 "HgN/A
11:50 PM
Fri, Apr 29
37 °FPassing clouds.3 mph87%29.95 "HgN/A
11:20 PM36 °FPassing clouds.6 mph87%29.95 "HgN/A
10:50 PM36 °FChilly.5 mph93%29.95 "HgN/A
10:20 PM37 °FChilly.6 mph81%29.95 "HgN/A
9:50 PM36 °FChilly.9 mph87%29.95 "HgN/A
9:20 PM39 °FChilly.8 mph81%29.95 "HgN/A
8:50 PM41 °FQuite cool.9 mph76%29.92 "HgN/A
8:20 PM45 °FPassing clouds.15 mph71%29.92 "HgN/A
7:50 PM46 °FCool.9 mph66%29.92 "HgN/A
7:20 PM48 °FScattered showers. Scattered clouds.14 mph58%29.92 "HgN/A
6:50 PM50 °FScattered showers. Scattered clouds.13 mph58%29.92 "HgN/A
6:20 PM46 °FSprinkles. Partly sunny.14 mph62%29.92 "HgN/A
5:50 PM50 °FScattered showers. Scattered clouds.14 mph54%29.89 "HgN/A
5:20 PM50 °FScattered showers. Scattered clouds.16 mph58%29.89 "HgN/A
4:50 PM52 °FScattered showers. Scattered clouds.17 mph54%29.89 "HgN/A
4:20 PM50 °FScattered showers. Scattered clouds.13 mph58%29.89 "HgN/A
3:50 PM48 °FSprinkles. Scattered clouds.13 mph62%29.89 "HgN/A
3:20 PM48 °FSprinkles. Scattered clouds.14 mph62%29.89 "HgN/A
2:50 PM48 °FScattered clouds.13 mph62%29.89 "HgN/A
2:20 PM54 °FScattered clouds.14 mph54%29.89 "HgN/A
1:50 PM52 °FScattered showers. Scattered clouds.15 mph58%29.86 "HgN/A
1:20 PM54 °FScattered showers. Scattered clouds.14 mph54%29.86 "HgN/A
12:50 PM54 °FScattered showers. Scattered clouds.13 mph58%29.86 "HgN/A
12:20 PM54 °FScattered showers. Scattered clouds.14 mph54%29.86 "HgN/A
11:50 AM52 °FScattered showers. Scattered clouds.13 mph62%29.86 "HgN/A
11:20 AM48 °FScattered showers. Scattered clouds.12 mph76%29.83 "HgN/A
10:50 AM45 °FSprinkles. Scattered clouds.15 mph81%29.83 "HgN/A
10:20 AM46 °FScattered showers. Scattered clouds.12 mph76%29.83 "HgN/A
9:50 AM43 °FScattered showers. Scattered clouds.6 mph81%29.83 "HgN/A
9:20 AM43 °FSprinkles. Passing clouds.12 mph81%29.83 "HgN/A
8:50 AM43 °FScattered showers. Passing clouds.14 mph81%29.83 "HgN/A
8:20 AM45 °FScattered showers. Passing clouds.12 mph76%29.83 "HgN/A
Weather by CustomWeather, © 2016

See weather overviewHow to use our weather pages